Location: Arroyo Grande
(40.2671°N, 4.2512°W)
Time: 01:08:23
(UTC+00:00)

Cosmos 2278 Rocket - Pass Details

Date: 27 September 2023
Orbit: 842 x 844 km, 71.0° (Epoch: 03 December)

Event Time Altitude Azimuth Distance (km) Brightness Sun altitude
Rises 18:28:39 0° 353° (N) 3,411 5.5 -5.1°
Reaches altitude 10° 18:33:06 10° 25° (NNE) 2,471 4.4 -5.9°
Maximum altitude 18:35:00 12° 45° (NE) 2,354 4.1 -6.3°
Drops below altitude 10° 18:36:54 10° 65° (ENE) 2,467 4.1 -6.6°
Enters shadow 18:38:25 - 78° (ENE) 2,702 4.2 -6.9°
